Powrót do katalogu

STARLINK-37207

AktywnyŁącznośćSSO
NORAD 100184·PAYLOAD·🇺🇸 United States

Wystrzelony Aug 1, 2026 z Vandenberg Space Force Base

Loading…

Następne Przeloty (najbliższe 24 godziny)

TLE

ŚwieżeSource: Space-Track

Epoka: Sep 14, 2026, 13:17 UTC

1 A0184U 26175F   26257.55385038  .00173952  00000-0  11416-2 0  9995
2 A0184  97.2842  99.7488 0001762  73.9631 286.1828 15.75228415  8246

Śledź STARLINK-37207 w czasie rzeczywistym z AllMySat

Download on the App Store